User: anonymous   Login
Location: The Saddle
(36.8333°N, 80.3417°W)
Time: 23:17:25
(UTC-04:00)
Language:

SRMSAT - Orbit

View from above orbital plane
View from above orbital plane
View from above satellite
View from above satellite

Ground track
Ground track

The orbit data is extracted from the following two-line orbital elements,

1 37841U 11058D   24106.55071137  .00000568  00000-0  16586-3 0  9998
2 37841  19.9713 175.6156 0011911 125.2581  10.9213 14.11074352645709
Epoch (UTC): 15 April 2024 13:13:01
Eccentricity: 0.0011911
inclination: 19.9713°
perigee height: 847 km
apogee height: 864 km
right ascension of ascending node: 175.6156°
argument of perigee: 125.2581°
revolutions per day: 14.11074352
mean anomaly at epoch: 10.9213°
orbit number at epoch: 64570

The dashed part of the orbit path shows where the satellite is in the earth's shadow,  

DLR